Regional Weather Roundup
Issued by NWS

Home | Current Version | Previous Version | Text Only | Print | Product List | Glossary On
Versions: 1 2 3 4 5 6 7 8 9 10 11 12 13 14 15 16 17 18 19 20 21 22 23 24 25 26 27 28 29 30 31 32 33 34 35 36 37 38 39 40 41 42 43 44 45 46 47 48 49 50
000
ASUS43 KOAX 041410
RWRNE

WEATHER ROUNDUP FOR NEBRASKA
NATIONAL WEATHER SERVICE OMAHA NE
900 AM CDT FRI SEP 04 2015

NOTES: SATELLITE DATA IS BEING USED TO AUGMENT CLOUD COVER ABOVE
       12000 FEET.
       "FAIR" INDICATES FEW OR NO CLOUDS BELOW 12,000 FEET WITH NO
       SIGNIFICANT WEATHER AND/OR OBSTRUCTIONS TO VISIBILITY.

  * THESE STATIONS DO NOT REPORT WEATHER SUCH AS RAIN...SNOW OR FOG.

NEZ001>004-019>022-054>056-041500-
NEBRASKA PANHANDLE

CITY           SKY/WX    TMP DP  RH WIND       PRES   REMARKS
SCOTTSBLUFF    SUNNY     61  55  81 SW3       29.92R
ALLIANCE       SUNNY     62  54  74 CALM      29.90R
CHADRON        SUNNY     66  54  65 SW6       29.85R
KIMBALL        SUNNY     61  51  69 W7        29.96R
SIDNEY         SUNNY     63  49  60 W10       29.94R
$$

NEZ057>060-069>072-079>082-041500-
SOUTHWEST NEBRASKA

CITY           SKY/WX    TMP DP  RH WIND       PRES   REMARKS
NORTH PLATTE   SUNNY     65  62  90 E3        29.84R
IMPERIAL       SUNNY     66  56  70 NW12      29.88R
LEXINGTON      MOSUNNY   75  62  62 S12G17    29.84R
MCCOOK         PTSUNNY   73  62  68 S7        29.83R
OGALLALA       SUNNY     62  58  88 SW3       29.88S
$$

NEZ005>010-023>029-035>040-094-041500-
NORTH CENTRAL NEBRASKA

CITY           SKY/WX    TMP DP  RH WIND       PRES   REMARKS
VALENTINE      MOSUNNY   68  63  84 SW5       29.82R
AINSWORTH      MOSUNNY   72  65  79 S10       29.82S
BROKEN BOW     MOSUNNY   73  63  70 S6        29.85R
O`NEILL        CLOUDY    73  66  79 E9        29.85S
ORD            PTSUNNY   73  64  73 SE9       29.84R
THEDFORD       SUNNY     71  65  80 CALM      29.85S
$$

NEZ041-046>049-061>064-073>077-083>087-041500-
SOUTH CENTRAL NEBRASKA

CITY           SKY/WX    TMP DP  RH WIND       PRES   REMARKS
GRAND ISLAND   CLOUDY    76  64  66 S23G30    29.87R
AURORA         CLOUDY    75  67  76 S17       29.88R
HASTINGS       PTSUNNY   77  64  64 S16G25    29.88R
HEBRON         PTSUNNY   73  66  80 E5        29.92F
HOLDREGE       MOSUNNY   75  60  60 SE13G23   29.85R
KEARNEY *      MOSUNNY   73  61  64 SE16      29.86R
YORK           CLOUDY    72  66  83 S13       29.89F
$$

NEZ011>018-030>034-042>045-041500-
NORTHEAST NEBRASKA

CITY           SKY/WX    TMP DP  RH WIND       PRES   REMARKS
NORFOLK        CLOUDY    73  67  81 SE15      29.86S
ALBION         CLOUDY    74  65  72 SE14      29.86S
BLAIR          CLOUDY    73  67  81 S8        29.94R
COLUMBUS *     CLOUDY    73  64  73 SE8       29.89S
FREMONT        CLOUDY    74  68  83 SE12      29.92S
TEKAMAH        CLOUDY    72  70  93 S6        29.91S
WAYNE          TSTM      72  67  87 S9        29.87S
$$

NEZ050>053-065>068-078-088>093-041500-
SOUTHEAST NEBRASKA

CITY           SKY/WX    TMP DP  RH WIND       PRES   REMARKS
LINCOLN        CLOUDY    73  69  87 SE8       29.93R
OMAHA EPPLEY   CLOUDY    75  69  81 S12       29.93S
BEATRICE       CLOUDY    73  68  86 SE3       29.96R
FALLS CITY     SUNNY     79  69  71 S8        29.95R
NEBRASKA CITY  PTSUNNY   76  66  71 S9        29.96R
PLATTSMOUTH    CLOUDY    73  67  81 SE8       29.94S
$$

NEZ044-045-051>053-067-041500-
OMAHA AREA

CITY           SKY/WX    TMP DP  RH WIND       PRES   REMARKS
OMAHA EPPLEY   CLOUDY    75  69  81 S12       29.93S
BLAIR          CLOUDY    73  67  81 S8        29.94R
FREMONT        CLOUDY    74  68  83 SE12      29.92S
MILLARD        CLOUDY    74  69  84 SE7       29.94R
OFFUTT AFB     CLOUDY    74  69  84 SE7       29.93S
PLATTSMOUTH    CLOUDY    73  67  81 SE8       29.94S
WAHOO          FAIR      73  69  90 SE9       29.92S
$$




USA.gov is the U.S. government's official web portal to all federal, state and local government web resources and services.